Find Starlink 4059

NORAD ID: 53250 Int'l Des: 2022-086 Owner: SPXS Country: US Constellation: starlink operational
LEOCIRCULAR

实时位置

正在加载3D地球...

关于 Starlink 4059

正在加载描述...

即将过境

Passes for default location (London). Set your location on the main map for personalized predictions.

高度历史

Loading altitude history...

两行轨道根数

1 53250U 22086J 26121.24168403 -.00001574 00000-0 -80843-4 0 9999
2 53250 53.2187 318.2061 0001161 78.9824 281.1299 15.08833354209004
Epoch: May 1, 2026 • Age: 11 hours

当前状态

高度 539.6 km
速度 7.59 km/s
星下点 10.40°N, 150.47°W
发射日期 Jul 24, 2022
运行时间 3.7 years
类型 internet

技术详情

分类 Payload
质量 297.00 kg
干质量 275.00 kg
总质量 297.00 kg
长度 0.20 m
直径 2.80 m
跨度 9.00 m
形状 Box + pan
制造商 SPXS
平台类型 Starlink
阶段状态 In Orbit
所有者/国家 SPXS/US

Most Searched